Location: Kernascl�den
(48.0062°N, 3.3198°W)
Time: 22:55:20
(UTC+00:00)

Cosmos 44 - Pass Details

Date: 21 January 2021
Orbit: 572 x 790 km, 65.1° (Epoch: 04 March)

Event Time Altitude Azimuth Distance (km) Brightness Sun altitude
Rises 19:50:06 0° 223° (SW) 2,973 7.1 -28.7°
Reaches altitude 10° 19:52:20 10° 225° (SW) 2,099 6.3 -29.0°
Enters shadow 19:55:56 50° 244° (WSW) 888 4.0 -29.6°
